{"data":{"norad_id":67766,"intl_designator":"2026-030C","name":"KUIPER-00177","alt_names":[],"object_type":"PAYLOAD","status":"ACTIVE","operator":null,"country":"US","launch_date":"2026-02-12","launch_site_code":"FRGUI","launch_vehicle":null,"mission":null,"orbit_class":"UNKNOWN","rcs_meters":null,"size_class":null,"mass_kg":null,"dimensions":null,"purposes":[],"wikipedia_slug":null,"has_3d_model":false,"image_url":null,"decayed_at":null,"tle_current":{"epoch":"2026-05-24T17:22:51.438144Z","epoch_age_seconds":102383,"freshness":"FRESH","line1":"1 67766U 26030C   26144.72420646 -.00004340  00000+0 -54063-3 0  9994","line2":"2 67766  51.9003 236.8963 0000299  74.0898 286.0098 14.79933066 16430","mean_motion":14.79933066,"eccentricity":2.99e-5,"inclination_deg":51.9003,"raan_deg":236.8963,"arg_perigee_deg":74.0898,"mean_anomaly_deg":286.0098,"bstar":-0.00054063,"rev_number":1643,"period_min":97.301697832326,"perigee_km":629.32589142397,"apogee_km":629.74495023474,"semimajor_km":7007.6724208294,"source":"CELESTRAK","updated_at":"2026-05-25T13:38:07.254170Z"}}}